Погода в Родне

Россия / Тверская область     56°22′07″N   34°54′44″E
темп.,
°C
ветер,
м/с
пор.,
м/с
влажн.,
%
обл.,
%
осадки,
мм/ч
давл.,
гПа
погр.,
м
12 апреля, пн
пн1200:00+8ю34775 0.0 103158
03:00+6ю34794 0.0 103253
06:00+5ююв35820 0.0 103276
09:00+10юв496134 0.0 1032401
12:00+13вюв5845100 0.0 1031950
15:00+14вюв5942100 0.0 10291096
18:00+11вюв4959100 0.0 1027629
21:00+9вюв31080100 0.0 1027314
13 апреля, вт
вт1300:00+8вюв3892100 0.0 1026208
03:00+7вюв2596100 0.0 1025119
06:00+7юв2496100 0.0 102490
09:00+11ююв2479100 0.0 1023239
12:00+15ю4861100 0.0 1023654
15:00+17ююз4856100 0.0 1022909
18:00+17ююв2463100 0.0 1021108
21:00+12ююв3974100 0.0 1022161
14 апреля, ср
ср1400:00+10ююв3107799 0.0 1021190
03:00+9ююв388035 0.0 1020147
06:00+8ю3883100 0.0 1020126
09:00+13ю4106780 0.0 1019507
12:00+17ю410515 0.0 10181440
15:00+18ююз5849100 0.2 10171936
18:00+15юз2467100 0.6 1017138
21:00+12всв1177100 0.8 101810
15 апреля, чт
чт1500:00+10всв2281100 0.0 101715
03:00+9с2283100 0.0 101725
06:00+8св2495100 0.0 1018131
09:00+9всв2589100 0.1 1018203
12:00+13св1264100 0.1 1018580
15:00+12з2271100 0.1 1017335
18:00+11сз2482100 0.0 1017183
21:00+10ссв4887100 0.1 1017301
16 апреля, пт
пт1600:00+8ссв4891100 0.0 1018364
03:00+7ссв5994100 0.1 1018386
06:00+6ссв51194100 0.1 1019503
09:00+6св61291100 0.1 1020632
12:00+6св71286100 0.0 1022705
15:00+7св61374100 0.0 1023850
18:00+8св61255100 0.0 10241095
21:00+5св614620 0.0 1026704